Regional Weather Roundup
Issued by NWS

Home | Current Version | Previous Version | Text Only | Print | Product List | Glossary Off
Versions: 1 2 3 4 5 6 7 8 9 10 11 12 13 14 15 16 17 18 19 20 21 22 23 24 25 26 27 28 29 30 31 32 33 34 35 36 37 38 39 40 41 42 43 44 45 46 47 48 49 50

000
ASUS43 KLOT 301810
RWRIL

ILLINOIS REGIONAL WEATHER ROUNDUP
NATIONAL WEATHER SERVICE CHICAGO/ROMEOVILLE IL
100 PM CDT SAT AUG 30 2014

NOTE: "FAIR" INDICATES FEW OR NO CLOUDS BELOW 12,000 FEET WITH NO
SIGNIFICANT WEATHER AND/OR OBSTRUCTIONS TO VISIBILITY.

* THESE STATIONS ARE NOT UNDER NWS QUALITY CONTROL. THEY ALSO MAY NOT
  REPORT WEATHER SUCH AS PRECIPITATION OR FOG.

ILZ001-002-007-009-015-016-024-301900-
NORTHWEST ILLINOIS

CITY           SKY/WX    TMP DP  RH WIND       PRES   REMARKS
MOLINE         PTSUNNY   77  67  71 W9        29.88R
6HR MIN TEMP:  69; 6HR MAX TEMP:  80;

STERLING*      CLOUDY    79  68  69 W15       29.88S HX  81
SAVANNA*       CLOUDY    77  65  67 W14       29.86R
$$

ILZ003-004-008-010-011-017-018-301900-
NORTH CENTRAL ILLINOIS

CITY           SKY/WX    TMP DP  RH WIND       PRES   REMARKS
ROCKFORD       CLOUDY    74  66  76 SW13      29.87R
6HR MIN TEMP:  68; 6HR MAX TEMP:  75; 6HR PCP: TRACE;

FREEPORT*      PTSUNNY   75  69  81 SW9G17    29.87S
ROCHELLE*      CLOUDY    75  67  75 W16G22    29.88R
DE KALB*       CLOUDY    76  66  70 W18G26    29.88S
PERU*          PTSUNNY   81  68  65 W10       29.89S HX  83
$$

ILZ005-006-012>014-019>023-301900-
NORTHEAST ILLINOIS

CITY           SKY/WX    TMP DP  RH WIND       PRES   REMARKS
CHICAGO-OHARE  PTSUNNY   79  66  64 SW14G26   29.85S HX  81
6HR MIN TEMP:  71; 6HR MAX TEMP:  80; 6HR PCP:  0.26;

CHICAGO-MIDWAY PTSUNNY   83  69  62 SW22G33   29.85F HX  86
6HR MIN TEMP:  75; 6HR MAX TEMP:  84;

AURORA         PTSUNNY   80  67  64 SW20G25   29.87S HX  82
6HR MIN TEMP:  71; 6HR MAX TEMP:  81; 6HR PCP: TRACE;

LANSING*         N/A    N/A N/A N/A MISG        N/A
JOLIET*        PTSUNNY   80  67  64 SW12G21   29.88S HX  83
WAUKEGAN       PTSUNNY   78  65  63 SW23G29   29.82S HX  80
6HR MIN TEMP:  71; 6HR MAX TEMP:  81; 6HR PCP: TRACE;

DUPAGE AIRPORT MOSUNNY   81  68  64 SW20      29.86S HX  84
6HR MIN TEMP:  71; 6HR MAX TEMP:  81; 6HR PCP: TRACE;

KANKAKEE*      CLOUDY    79  72  80 SW15G23   29.92S HX  82
WHEELING       PTSUNNY   82  67  60 SW17G25   29.85S HX  84
6HR MIN TEMP:  73; 6HR MAX TEMP:  82; 6HR PCP:  0.01;

MORRIS*        MOSUNNY   82  71  69 SW15      29.88S HX  85
ROMEOVILLE*    PTSUNNY   79  68  67 W15G23    29.87S HX  81
NORTHERLY ISL    N/A     81  66  60 SW9         N/A  HX  83
$$

LMZ740>746-301900-
SOUTHERN LAKE MICHIGAN

STATION/POSITION SKY/WX   TEMP    WIND        PRES    VSBY  WAVE
                          AIR SEA DIR/SP/G                  HT/PER
                          (F)     (DEG/KT/KT) (MB)    (MI)  (FT/S)
SOUTHERN BUOY              72 69  190/ 17/ 21   N/A
WAUKEGAN HARBOR            78     240/ 20/ 25   N/A
HARRISON CRIB              78     220/ 19/ 29   N/A
BURNHAM HARBOR             82     240/  9/ 22   N/A
CALUMET HARBOR             79     200/ 13/ 21 1009.9F
MICHIGAN CITY              77     180/ 16/ 21   N/A
MICHIGAN CITY 6N           77 72  200/ 14/ 17   N/A           3/ 3
ST. JOSEPH                 74 71  210/ 12/ 16   N/A           2/ 4
$$

ILZ025>027-034>036-040-047-049-050-058-095>099-301900-
WEST-CENTRAL ILLINOIS

CITY           SKY/WX    TMP DP  RH WIND       PRES   REMARKS
QUINCY         PTSUNNY   82  71  69 SW7       29.91F HX  86
MACOMB*        MOSUNNY   80  70  73 SW10      29.93S HX  83
JACKSONVILLE*  MOSUNNY   84  72  68 SW7       29.93F HX  89
PITTSFIELD*    PTSUNNY   84  71  65 S9        29.93S HX  88
$$

ILZ028>032-037-038-041>044-048-051>054-059>061-301900-
CENTRAL ILLINOIS

CITY           SKY/WX    TMP DP  RH WIND       PRES   REMARKS
PONTIAC        MOSUNNY   82  72  69 SW13      29.90F HX  87
DECATUR        PTSUNNY   83  72  69 SW15      29.94F HX  88
PEORIA         MOSUNNY   82  70  66 SW10      29.90F HX  86
6HR MIN TEMP:  73; 6HR MAX TEMP:  84;

LACON*         MOSUNNY   79  68  67 SW9       29.89S HX  82
LINCOLN*       PTSUNNY   82  72  71 S6        29.89S HX  86
SPRINGFIELD    PTSUNNY   82  73  74 S10       29.93S HX  87
6HR MIN TEMP:  73; 6HR MAX TEMP:  82; 6HR PCP: TRACE;

TAYLORVILLE    PTSUNNY   81  72  74 S10G17    29.95S HX  84
$$

ILZ033-039-045-046-055>057-062-063-301900-
EAST-CENTRAL ILLINOIS

CITY           SKY/WX    TMP DP  RH WIND       PRES   REMARKS
CHAMPAIGN      PTSUNNY   81  72  74 S16       29.95F HX  85
DANVILLE*      RAIN      80  72  77 SW13      29.93S HX  84
RANTOUL*       PTSUNNY   84  71  64 SW14G21   29.94F HX  88
MATTOON        CLOUDY    79  70  74 S13G21    29.97F HX  82
PARIS*         PTSUNNY   82  72  72 SW17G24   29.98F HX  86
$$

ILZ079-100>102-301900-
SOUTHWEST ILLINOIS

CITY           SKY/WX    TMP DP  RH WIND       PRES   REMARKS
BELLEVILLE     CLOUDY    80  73  79 VRB6      29.95F HX  85
CAHOKIA*       CLOUDY    80  73  79 S12       29.96F HX  84
SPARTA*        CLOUDY    79  72  79 S9        29.99F HX  82
$$

ILZ064>066-069>071-074>076-080>082-084>086-088>090-092>094-301900-
SOUTH-CENTRAL ILLINOIS

CITY           SKY/WX    TMP DP  RH WIND       PRES   REMARKS
CARBONDALE     CLOUDY    79  73  82 S9        30.01R HX  82
6HR MIN TEMP:  70; 6HR MAX TEMP:  79; 6HR PCP:  0.46;

EFFINGHAM*     RAIN      80  68  67 SW9       29.99F HX  82
MARION         CLOUDY    77  72  83 S14       30.03R
MT. VERNON     CLOUDY    79  70  73 SW14      30.02R HX  81
CENTRALIA*     CLOUDY    79  70  73 S9        29.99F HX  81
SALEM*         CLOUDY    80  73  79 S9        29.99F HX  84
METROPOLIS*    TSTM      73  73 100 S5        30.03F
$$

ILZ067-068-072-073-078-083-087-091-301900-
SOUTHEAST ILLINOIS

CITY           SKY/WX    TMP DP  RH WIND       PRES   REMARKS
LAWRENCEVILLE  LGT RAIN  77  72  84 S6        30.01F
FLORA*         CLOUDY    79  71  77 SW13      30.00S HX  82
FAIRFIELD*     CLOUDY    77  73  88 S9        30.01R
HARRISBURG*    RAIN      75  73  95 S8        30.03R
ROBINSON*      CLOUDY    78  74  88 SW8       30.01F
CARMI*         RAIN      77  75  93 CALM      30.02S
$$

ABBREVIATIONS USED IN REMARKS
   TC - TEMPERATURE IN CELSIUS
  WCI - WIND CHILL INDEX
   HX - HEAT INDEX
  VSB - VISIBILITY
$$



USA.gov is the U.S. government's official web portal to all federal, state and local government web resources and services.